Location: Unspecified
(51.0950°N, 12.9690°E)
Time: 00:15:19
(UTC+00:00)

First-Move - Pass Details

Date: 03 May 2024
Orbit: 538 x 600 km, 97.7° (Epoch: 20 May)

Event Time Altitude Azimuth Distance (km) Brightness Sun altitude
Rises 01:11:28 0° 32° (NNE) 2,873 ? -17.6°
Maximum altitude 01:16:39 12° 86° (E) 1,852 ? -17.2°
Drops below altitude 10° 01:18:06 10° 106° (ESE) 1,945 ? -17.1°
Sets 01:21:46 0° 140° (SE) 2,828 ? -16.8°
